Flag for Germany Weather past 2 weeks in Fürstenfeldbruck, Bavaria, Germany

Now
59 °F

Partly sunny.


Feels Like: 60 °F
Forecast: 45 / 71 °F
Wind: 3 mph from North

Location: Oberpfaffenhofen

Current Time: Aug 27, 2014 at 3:35:01 PM

Latest Report: Aug 27, 2014 at 3:20 PM


Visibility: N/A

Pressure: 30.07 "Hg

Humidity: 77%

Dew point: 52 °F

Location of FürstenfeldbruckLocation

Historic Weather in Fürstenfeldbruck — Graph

°F

Fürstenfeldbruck temperature yesterday

Maximum temperature yesterday: 66 °F (at 11:20 AM)
Minimum temperature yesterday: 54 °F (at 6:50 AM)
Average temperature yesterday: 62 °F

Past Weeks' High & Low Weather Summary

 TemperatureHumidityPressure
High68 °F (Aug 12, 2:50 PM)94% (Aug 13, 12:20 PM)30.15 "Hg (Aug 13, 12:20 PM)
Low43 °F (Aug 25, 6:50 AM)40% (Aug 21, 6:20 PM)29.68 "Hg (Aug 13, 3:50 PM)
Average60 °F69%29.97 "Hg
* Reported Aug 12 2:20 PM — Aug 27 2:20 PM, Fürstenfeldbruck, Weather by CustomWeather, © 2014

Note: Actual official high and low records may vary slightly from our data, if they occured in-between our weather recording intervals... More about our weather records

Advertising

Fürstenfeldbruck weather history for previous 24 hours

 ConditionsComfort  
Time TempWeatherWind HumidityBarometerVisibility
2:20 PM
Aug 27
57 °FSprinkles. Partly sunny.6 mph82%30.04 "HgN/A
1:50 PM57 °FBroken clouds.5 mph82%30.04 "HgN/A
1:20 PM57 °FLight rain. Partly sunny.2 mph88%30.04 "HgN/A
12:20 PM55 °FLight rain. Broken clouds.7 mph88%30.01 "Hg6 mi
11:50 AM55 °FSprinkles. Broken clouds.13 mph88%30.01 "Hg5 mi
11:30 AM57 °FSprinkles. Broken clouds.12 mph88%29.98 "HgN/A
11:20 AM59 °FLight rain. Partly sunny.14 mph82%29.98 "HgN/A
10:50 AM61 °FScattered clouds.12 mph77%29.98 "HgN/A
10:20 AM59 °FPartly sunny.12 mph82%29.95 "HgN/A
9:50 AM59 °FSprinkles. Broken clouds.13 mph82%29.95 "HgN/A
9:20 AM59 °FBroken clouds.15 mph82%29.95 "HgN/A
8:50 AM59 °FPartly sunny.17 mph82%29.92 "HgN/A
8:20 AM59 °FPartly sunny.14 mph82%29.92 "HgN/A
7:50 AM57 °FPartly sunny.10 mph88%29.89 "HgN/A
7:20 AM57 °FSprinkles. Passing clouds.8 mph88%29.89 "HgN/A
6:50 AM57 °FPassing clouds.9 mph88%29.89 "HgN/A
7:50 PM
Aug 26
63 °FSunny.10 mph73%29.77 "Hg10 mi
7:20 PM63 °FPartly sunny.9 mph73%29.77 "HgN/A
6:50 PM64 °FPartly sunny.9 mph68%29.77 "HgN/A
6:20 PM66 °FPartly sunny.14 mph68%29.77 "HgN/A
5:50 PM66 °FBroken clouds.16 mph68%29.80 "HgN/A
5:20 PM66 °FBroken clouds.17 mph68%29.80 "HgN/A
4:50 PM66 °FBroken clouds.14 mph73%29.80 "HgN/A
4:20 PM64 °FPartly sunny.12 mph73%29.80 "HgN/A
3:50 PM64 °FSprinkles. Broken clouds.13 mph73%29.80 "HgN/A
3:20 PM64 °FBroken clouds.16 mph73%29.80 "HgN/A
Weather by CustomWeather, © 2014

See weather overviewHow to use our weather pages